This demonstration page uses our WeatherBlox Daily Observations layout. Learn more.

Left ArrowRight Arrow

Hourly Observations for January 3, 2017

Temp ( °F °C ) Dew Point ( °F °C ) Humidity (%) Winds ( mph kmh ) Pressure ( in mb ) Visibility ( mi km ) Precip ( " mm )
12:15 am 00:15 Partly Cloudy 18 -8 10 -12.2 72 72 N 13 20 30.27 1025 10 16 0.00 0.00
12:35 am 00:35 Clear 17 -8.1 10 -12.1 73 73 NNW 13 20 30.27 1025 10 16 0.00 0.00
12:55 am 00:55 Clear 17 -8.2 9 -12.6 71 71 NNW 17 28 30.30 1026 10 16 0.00 0.00
1:15 am 01:15 Clear 17 -8.5 9 -12.9 71 71 N 15 24 30.33 1027 10 16 0.00 0.00
1:35 am 01:35 Clear 16 -8.8 8 -13.3 70 70 NNW 13 20 30.33 1027 10 16 0.00 0.00
1:55 am 01:55 Clear 16 -9 7 -13.7 69 69 N 20 31 30.33 1027 10 16 0.00 0.00
2:15 am 02:15 Clear 16 -9 8 -13.2 72 72 N 14 22 30.33 1027 10 16 0.00 0.00
2:35 am 02:35 Clear 15 -9.3 6 -14.2 68 68 N 14 22 30.33 1027 10 16 0.00 0.00
2:55 am 02:55 Clear 15 -9.5 6 -14.4 68 68 NNW 18 30 30.33 1027 10 16 0.00 0.00
3:15 am 03:15 Clear 14 -9.8 6 -14.7 68 68 NNW 16 26 30.33 1027 10 16 0.00 0.00
3:35 am 03:35 Clear 14 -9.8 6 -14.5 69 69 NNW 18 30 30.33 1027 10 16 0.00 0.00
3:55 am 03:55 Clear 14 -10 5 -14.8 68 68 NNW 16 26 30.33 1027 10 16 0.00 0.00
4:15 am 04:15 Clear 14 -10.1 5 -15 68 68 NNW 18 30 30.33 1027 10 16 0.00 0.00
4:35 am 04:35 Clear 13 -10.3 5 -15.2 68 68 NNW 17 28 30.33 1027 10 16 0.00 0.00
4:55 am 04:55 Clear 13 -10.5 4 -15.5 67 67 N 16 26 30.33 1027 10 16 0.00 0.00
5:15 am 05:15 Clear 12 -10.9 4 -15.5 69 69 N 20 31 30.33 1027 10 16 0.00 0.00
5:35 am 05:35 Clear 12 -11 4 -15.5 70 70 N 17 28 30.33 1027 10 16 0.00 0.00
5:55 am 05:55 Clear 12 -11.1 4 -15.5 70 70 N 17 28 30.36 1028 10 16 0.00 0.00
6:15 am 06:15 Clear 12 -11.2 4 -15.5 71 71 NNW 16 26 30.36 1028 10 16 0.00 0.00
6:35 am 06:35 Clear 11 -11.4 4 -15.7 71 71 N 20 31 30.36 1028 10 16 0.00 0.00
6:55 am 06:55 Clear 11 -11.5 4 -15.7 71 71 NNW 16 26 30.39 1029 10 16 0.00 0.00
7:15 am 07:15 Clear 11 -11.6 4 -15.7 72 72 N 17 28 30.39 1029 10 16 0.00 0.00
7:35 am 07:35 Clear 11 -11.7 4 -15.8 72 72 NNW 17 28 30.39 1029 10 16 0.00 0.00
7:55 am 07:55 Clear 11 -11.7 3 -16 71 71 N 18 30 30.42 1030 10 16 0.00 0.00
8:15 am 08:15 Partly Cloudy 11 -11.6 4 -15.7 72 72 N 16 26 30.42 1030 10 16 0.00 0.00
8:35 am 08:35 Mostly Cloudy 13 -10.5 4 -15.3 68 68 N 20 31 30.39 1029 10 16 0.00 0.00
8:55 am 08:55 Cloudy 14 -10 4 -15.5 64 64 N 21 33 30.42 1030 10 16 0.00 0.00
9:15 am 09:15 Cloudy 14 -10.1 4 -15.3 66 66 NNW 21 33 30.42 1030 10 16 0.00 0.00
9:35 am 09:35 Cloudy 14 -10.2 4 -15.5 65 65 N 21 33 30.48 1032 10 16 0.00 0.00
9:55 am 09:55 Cloudy 14 -10.1 4 -15.6 64 64 NNW 23 37 30.48 1032 10 16 0.00 0.00
10:15 am 10:15 Cloudy 14 -10 4 -15.4 65 65 N 17 28 30.45 1031 10 16 0.00 0.00
10:35 am 10:35 Cloudy 15 -9.7 5 -15.2 65 65 NNW 17 28 30.45 1031 10 16 0.00 0.00
10:55 am 10:55 Cloudy 15 -9.4 5 -15.1 64 64 N 18 30 30.45 1031 10 16 0.00 0.00
11:15 am 11:15 Cloudy 15 -9.2 4 -15.5 61 61 N 23 37 30.45 1031 10 16 0.00 0.00
11:35 am 11:35 Cloudy 15 -9.4 4 -15.8 60 60 N 16 26 30.48 1032 10 16 0.00 0.00
11:55 am 11:55 Cloudy 16 -9 4 -15.7 59 59 N 16 26 30.45 1031 10 16 0.00 0.00
12:15 pm 12:15 Cloudy 17 -8.6 4 -15.5 58 58 N 14 22 30.45 1031 10 16 0.00 0.00
12:35 pm 12:35 Cloudy 17 -8.5 4 -15.5 57 57 N 17 28 30.45 1031 10 16 0.00 0.00
12:55 pm 12:55 Cloudy 17 -8.3 4 -15.5 56 56 N 10 17 30.45 1031 10 16 0.00 0.00
1:15 pm 13:15 Cloudy 18 -7.6 5 -15.1 55 55 NNW 13 20 30.45 1031 10 16 0.00 0.00
1:35 pm 13:35 Cloudy 19 -7.5 5 -15.2 54 54 N 15 24 30.45 1031 10 16 0.00 0.00
1:55 pm 13:55 Cloudy 18 -7.7 5 -15.2 55 55 NNW 13 20 30.45 1031 10 16 0.00 0.00
2:15 pm 14:15 Partly Cloudy 19 -7.3 5 -15.1 54 54 N 13 20 30.45 1031 10 16 0.00 0.00
2:35 pm 14:35 Sunny 19 -7 5 -15.1 53 53 N 14 22 30.39 1029 10 16 0.00 0.00
2:55 pm 14:55 Sunny 20 -6.5 5 -15.1 51 51 N 13 20 30.39 1029 10 16 0.00 0.00
3:15 pm 15:15 Sunny 21 -6.1 5 -14.9 50 50 N 14 22 30.42 1030 10 16 0.00 0.00
3:35 pm 15:35 Sunny 21 -6.2 5 -15.2 49 49 N 13 20 30.42 1030 10 16 0.00 0.00
3:55 pm 15:55 Sunny 21 -6.3 4 -15.5 48 48 N 16 26 30.42 1030 10 16 0.00 0.00
4:15 pm 16:15 Sunny 20 -6.5 4 -15.5 49 49 N 15 24 30.42 1030 10 16 0.00 0.00
4:35 pm 16:35 Sunny 20 -6.8 4 -15.8 49 49 NNW 13 20 30.42 1030 10 16 0.00 0.00
4:55 pm 16:55 Sunny 19 -7.2 4 -15.6 51 51 N 12 19 30.45 1031 10 16 0.00 0.00
5:15 pm 17:15 Sunny 18 -8 3 -16 53 53 N 10 17 30.45 1031 10 16 0.00 0.00
5:35 pm 17:35 Clear 16 -8.7 4 -15.7 57 57 N 9 15 30.45 1031 10 16 0.00 0.00
5:55 pm 17:55 Clear 15 -9.2 4 -15.6 60 60 N 8 13 30.45 1031 10 16 0.00 0.00
6:15 pm 18:15 Clear 15 -9.7 4 -15.7 62 62 N 8 13 30.45 1031 10 16 0.00 0.00
6:35 pm 18:35 Clear 14 -9.8 4 -15.6 63 63 N 7 11 30.50 1033 10 16 0.00 0.00
6:55 pm 18:55 Clear 14 -10.2 4 -15.7 64 64 N 7 11 30.50 1033 10 16 0.00 0.00
7:15 pm 19:15 Clear 13 -10.8 4 -15.8 67 67 N 7 11 30.50 1033 10 16 0.00 0.00
7:35 pm 19:35 Clear 12 -11.1 3 -16 67 67 NNW 8 13 30.50 1033 10 16 0.00 0.00
7:55 pm 19:55 Clear 12 -11.2 3 -16.1 67 67 N 7 11 30.50 1033 10 16 0.00 0.00
8:15 pm 20:15 Clear 12 -11.2 3 -16.2 67 67 N 7 11 30.50 1033 10 16 0.00 0.00
8:35 pm 20:35 Clear 11 -11.5 3 -16.3 68 68 NNW 7 11 30.53 1034 10 16 0.00 0.00
8:55 pm 20:55 Clear 10 -12.3 2 -16.6 71 71 NW 3 6 30.56 1035 10 16 0.00 0.00
9:15 pm 21:15 Clear 9 -12.6 2 -16.6 72 72 NNW 6 9 30.56 1035 10 16 0.00 0.00
9:35 pm 21:35 Clear 10 -12.3 2 -16.5 71 71 NNW 6 9 30.56 1035 10 16 0.00 0.00
9:55 pm 21:55 Clear 9 -12.6 2 -16.6 72 72 N 3 6 30.53 1034 10 16 0.00 0.00
10:15 pm 22:15 Clear 8 -13.5 1 -17.2 74 74 NNW 5 7 30.53 1034 10 16 0.00 0.00
10:35 pm 22:35 Clear 8 -13.6 2 -16.8 77 77 N 6 9 30.53 1034 10 16 0.00 0.00
10:55 pm 22:55 Clear 8 -13.3 2 -16.8 75 75 N 7 11 30.53 1034 10 16 0.00 0.00
11:15 pm 23:15 Clear 8 -13.2 2 -16.7 75 75 N 6 9 30.53 1034 10 16 0.00 0.00
11:35 pm 23:35 Partly Cloudy 8 -13.5 2 -16.8 76 76 N 8 13 30.53 1034 10 16 0.00 0.00
11:55 pm 23:55 Mostly Cloudy 8 -13.1 2 -16.5 76 76 N 8 13 30.50 1033 10 16 0.00 0.00

Powered by AerisWeather